When you browse on this site, cookies collect data to enhance your experience and personalize the content and advertising you see.
Visit our Privacy Policy to learn more. By continuing to use the site, you agree to this use of cookies and data.
  • In Latvia
  • List of Countries
  • For 7 days
  • Water Temperature
  • Satellite Maps
  • Weather Map
  • Weather Widgets
  • user-avatar
    Login

    Hourly Weather Chumakov

    Today, 24 March, Sunday

    Time Temperature Precipitation Wind Pressure Humidity
    00:00 +1°C° 0 mm 3 mps 759 mmHg 70%
    01:00 +1°C° 0 mm 3 mps 759 mmHg 72%
    02:00 +1°C° 0 mm 3 mps 759 mmHg 75%
    03:00 +1°C° 0 mm 3 mps 759 mmHg 77%
    04:00 0°C° 0.1 mm 4 mps 759 mmHg 76%
    05:00 0°C° 0.1 mm 4 mps 759 mmHg 76%
    06:00 +1°C° 0.1 mm 4 mps 760 mmHg 76%
    07:00 +1°C° 0.2 mm 4 mps 760 mmHg 78%
    08:00 +1°C° 0.2 mm 4 mps 760 mmHg 79%
    09:00 +3°C° 0.2 mm 4 mps 760 mmHg 80%
    10:00 +3°C° 0.1 mm 4 mps 760 mmHg 75%
    11:00 +4°C° 0.1 mm 4 mps 760 mmHg 70%
    12:00 +5°C° 0.1 mm 4 mps 760 mmHg 64%
    13:00 +5°C° 0.1 mm 4 mps 760 mmHg 63%
    14:00 +6°C° 0.1 mm 4 mps 760 mmHg 61%
    15:00 +6°C° 0.1 mm 4 mps 760 mmHg 59%
    16:00 +5°C° 0 mm 4 mps 760 mmHg 62%
    17:00 +5°C° 0 mm 4 mps 760 mmHg 64%
    18:00 +5°C° 0 mm 3 mps 760 mmHg 66%
    19:00 +4°C° 0 mm 3 mps 761 mmHg 69%
    20:00 +3°C° 0 mm 3 mps 761 mmHg 71%
    21:00 +3°C° 0 mm 2 mps 762 mmHg 73%
    22:00 +2°C° 0 mm 2 mps 761 mmHg 75%
    23:00 +2°C° 0 mm 2 mps 761 mmHg 76%

    Tomorrow, 25 March, Monday

    Time Temperature Precipitation Wind Pressure Humidity
    00:00 +1°C° 0 mm 2 mps 761 mmHg 77%
    01:00 +1°C° 0 mm 2 mps 761 mmHg 78%
    02:00 +1°C° 0 mm 2 mps 761 mmHg 80%
    03:00 +1°C° 0 mm 2 mps 761 mmHg 81%
    04:00 +1°C° 0 mm 2 mps 761 mmHg 82%
    05:00 -1°C° 0 mm 2 mps 761 mmHg 82%
    06:00 -1°C° 0 mm 2 mps 761 mmHg 82%
    07:00 +2°C° 0 mm 2 mps 761 mmHg 76%
    08:00 +3°C° 0 mm 2 mps 760 mmHg 70%
    09:00 +5°C° 0 mm 2 mps 760 mmHg 63%
    10:00 +6°C° 0 mm 2 mps 760 mmHg 60%
    11:00 +9°C° 0 mm 1 mps 760 mmHg 57%
    12:00 +10°C° 0 mm 1 mps 759 mmHg 53%
    13:00 +10°C° 0 mm 1 mps 759 mmHg 53%
    14:00 +11°C° 0 mm 1 mps 758 mmHg 52%
    15:00 +12°C° 0 mm 1 mps 758 mmHg 51%
    16:00 +11°C° 0 mm 1 mps 758 mmHg 55%
    17:00 +11°C° 0 mm 1 mps 758 mmHg 59%
    18:00 +10°C° 0 mm 1 mps 758 mmHg 62%
    19:00 +9°C° 0 mm 1 mps 758 mmHg 65%
    20:00 +8°C° 0 mm 1 mps 758 mmHg 67%
    21:00 +6°C° 0 mm 2 mps 759 mmHg 69%
    22:00 +6°C° 0 mm 2 mps 759 mmHg 71%
    23:00 +5°C° 0 mm 2 mps 759 mmHg 72%

    Day after tomorrow, 26 March, Tuesday

    Time Temperature Precipitation Wind Pressure Humidity
    00:00 +5°C° 0 mm 2 mps 759 mmHg 74%
    01:00 +5°C° 0 mm 2 mps 759 mmHg 75%
    02:00 +4°C° 0 mm 2 mps 759 mmHg 76%
    03:00 +5°C° 0 mm 1 mps 759 mmHg 77%
    04:00 +4°C° 0 mm 1 mps 759 mmHg 78%
    05:00 +3°C° 0 mm 2 mps 759 mmHg 79%
    06:00 +3°C° 0 mm 2 mps 759 mmHg 80%
    07:00 +4°C° 0 mm 2 mps 759 mmHg 75%
    08:00 +6°C° 0 mm 2 mps 759 mmHg 70%
    09:00 +7°C° 0 mm 2 mps 759 mmHg 65%
    10:00 +9°C° 0 mm 2 mps 758 mmHg 60%
    11:00 +10°C° 0 mm 2 mps 758 mmHg 56%
    12:00 +13°C° 0 mm 2 mps 758 mmHg 51%
    13:00 +14°C° 0 mm 1 mps 757 mmHg 49%
    14:00 +15°C° 0 mm 1 mps 757 mmHg 46%
    15:00 +16°C° 0 mm 1 mps 756 mmHg 44%
    16:00 +15°C° 0 mm 1 mps 756 mmHg 48%
    17:00 +14°C° 0 mm 1 mps 756 mmHg 51%
    18:00 +14°C° 0 mm 1 mps 756 mmHg 55%
    19:00 +12°C° 0 mm 1 mps 757 mmHg 56%
    20:00 +11°C° 0 mm 1 mps 757 mmHg 58%
    21:00 +10°C° 0 mm 1 mps 757 mmHg 60%
    22:00 +9°C° 0 mm 1 mps 757 mmHg 63%
    23:00 +8°C° 0 mm 2 mps 757 mmHg 66%

    27 March, Wednesday

    Time Temperature Precipitation Wind Pressure Humidity
    00:00 +7°C° 0 mm 2 mps 757 mmHg 69%
    01:00 +7°C° 0 mm 2 mps 757 mmHg 71%
    02:00 +6°C° 0 mm 2 mps 757 mmHg 74%
    03:00 +6°C° 0 mm 2 mps 757 mmHg 76%
    04:00 +6°C° 0 mm 2 mps 757 mmHg 77%
    05:00 +5°C° 0 mm 2 mps 758 mmHg 78%
    06:00 +5°C° 0 mm 2 mps 758 mmHg 78%
    07:00 +6°C° 0 mm 2 mps 758 mmHg 75%
    08:00 +8°C° 0 mm 2 mps 759 mmHg 71%
    09:00 +9°C° 0 mm 3 mps 759 mmHg 67%
    10:00 +9°C° 0 mm 3 mps 759 mmHg 68%
    11:00 +10°C° 0 mm 4 mps 759 mmHg 69%
    12:00 +11°C° 0 mm 4 mps 759 mmHg 70%
    13:00 +10°C° 0 mm 5 mps 760 mmHg 64%
    14:00 +12°C° 0 mm 5 mps 760 mmHg 58%
    15:00 +11°C° 0 mm 6 mps 760 mmHg 52%
    16:00 +10°C° 0 mm 5 mps 760 mmHg 50%
    17:00 +9°C° 0 mm 5 mps 761 mmHg 49%
    18:00 +7°C° 0 mm 5 mps 762 mmHg 47%
    19:00 +6°C° 0 mm 5 mps 762 mmHg 51%
    20:00 +5°C° 0 mm 4 mps 763 mmHg 55%
    21:00 +4°C° 0 mm 4 mps 764 mmHg 59%
    22:00 +3°C° 0 mm 3 mps 765 mmHg 56%
    23:00 +3°C° 0 mm 3 mps 765 mmHg 54%

    28 March, Thursday

    Time Temperature Precipitation Wind Pressure Humidity
    00:00 +3°C° 0 mm 2 mps 765 mmHg 52%
    01:00 +3°C° 0 mm 2 mps 766 mmHg 54%
    02:00 +2°C° 0 mm 2 mps 766 mmHg 56%
    03:00 +2°C° 0 mm 2 mps 766 mmHg 58%
    04:00 +1°C° 0 mm 2 mps 766 mmHg 58%
    05:00 +2°C° 0 mm 1 mps 766 mmHg 59%
    06:00 +2°C° 0 mm 1 mps 767 mmHg 59%
    07:00 +3°C° 0 mm 1 mps 767 mmHg 54%
    08:00 +5°C° 0 mm 1 mps 767 mmHg 48%
    09:00 +6°C° 0 mm 1 mps 767 mmHg 42%
    10:00 +6°C° 0 mm 2 mps 767 mmHg 40%
    11:00 +7°C° 0 mm 2 mps 767 mmHg 38%
    12:00 +8°C° 0 mm 3 mps 767 mmHg 36%
    13:00 +8°C° 0 mm 3 mps 767 mmHg 36%
    14:00 +8°C° 0 mm 3 mps 766 mmHg 36%
    15:00 +8°C° 0 mm 4 mps 766 mmHg 36%
    16:00 +8°C° 0 mm 3 mps 766 mmHg 40%
    17:00 +7°C° 0 mm 3 mps 766 mmHg 44%
    18:00 +7°C° 0 mm 3 mps 766 mmHg 48%
    19:00 +5°C° 0 mm 3 mps 766 mmHg 51%
    20:00 +3°C° 0 mm 3 mps 767 mmHg 54%
    21:00 +2°C° 0 mm 3 mps 767 mmHg 57%
    22:00 +2°C° 0 mm 3 mps 767 mmHg 58%
    23:00 +1°C° 0 mm 3 mps 767 mmHg 58%

    29 March, Friday

    Time Temperature Precipitation Wind Pressure Humidity
    00:00 +2°C° 0 mm 2 mps 767 mmHg 59%
    01:00 +2°C° 0 mm 2 mps 767 mmHg 60%
    02:00 +1°C° 0 mm 2 mps 767 mmHg 62%
    03:00 +1°C° 0 mm 2 mps 767 mmHg 63%
    04:00 +1°C° 0 mm 2 mps 767 mmHg 64%
    05:00 -1°C° 0 mm 2 mps 767 mmHg 65%
    06:00 +1°C° 0 mm 1 mps 767 mmHg 67%
    07:00 +3°C° 0 mm 1 mps 767 mmHg 61%
    08:00 +4°C° 0 mm 1 mps 767 mmHg 56%
    09:00 +6°C° 0 mm 1 mps 767 mmHg 51%
    10:00 +7°C° 0 mm 1 mps 766 mmHg 47%
    11:00 +7°C° 0 mm 2 mps 766 mmHg 43%
    12:00 +8°C° 0 mm 2 mps 765 mmHg 39%
    13:00 +9°C° 0 mm 2 mps 765 mmHg 38%
    14:00 +10°C° 0 mm 2 mps 765 mmHg 37%
    15:00 +10°C° 0 mm 3 mps 764 mmHg 36%
    16:00 +10°C° 0 mm 2 mps 764 mmHg 40%
    17:00 +9°C° 0 mm 2 mps 764 mmHg 45%
    18:00 +9°C° 0 mm 2 mps 764 mmHg 49%
    19:00 +9°C° 0 mm 1 mps 764 mmHg 51%
    20:00 +7°C° 0 mm 1 mps 764 mmHg 54%
    21:00 +6°C° 0 mm 1 mps 764 mmHg 56%
    22:00 +6°C° 0 mm 1 mps 764 mmHg 58%
    23:00 +5°C° 0 mm 1 mps 764 mmHg 59%
    Show more